User: anonymous   Login
Location: Champs
(48.8539°N, 2.6040°E)
Time: 14:34:52
(UTC+00:00)
Language:

Cosmos 2056 Rocket - Orbit

View from above orbital plane
View from above orbital plane
View from above satellite
View from above satellite

Ground track
Ground track

The orbit data is extracted from the following two-line orbital elements,

1 20433U 90004B   22021.82796458  .00000119  00000-0  49353-4 0  9990
2 20433  74.0361 152.2522 0041815 232.9835 237.3959 14.36173084676032
Epoch (UTC): 21 January 2022 19:52:16
Eccentricity: 0.0041815
inclination: 74.0361°
perigee height: 741 km
apogee height: 801 km
right ascension of ascending node: 152.2522°
argument of perigee: 232.9835°
revolutions per day: 14.36173084
mean anomaly at epoch: 237.3959°
orbit number at epoch: 67603

The dashed part of the orbit path shows where the satellite is in the earth's shadow,  

DLR